Location: Biltmore Gardens
(41.6070°N, 83.4666°W)
Time: 13:12:46
(UTC+00:00)

Cosmos 468 - Pass Details

Date: 14 July 2020
Orbit: 762 x 783 km, 74.0° (Epoch: 04 August)

Event Time Altitude Azimuth Distance (km) Brightness Sun altitude
Exits shadow 04:08:56 62° 166° (SSE) 864 4.4 -23.4°
Maximum altitude 04:09:43 75° 107° (ESE) 798 4.4 -23.4°
Drops below altitude 10° 04:14:57 10° 23° (NNE) 2,310 7.5 -23.8°
Sets 04:17:20 0° 22° (NNE) 3,238 8.4 -24.0°
